Time,TemperatureF,DewpointF,PressureIn,WindDirection,WindDirectionDegrees,WindSpeedMPH,WindSpeedGustMPH,Humidity,HourlyPrecipIn,Conditions,Clouds,dailyrainin,SoftwareType,DateUTC
2013-06-10 00:01:00,65.4,63.5,29.84,NNW,333,0.0,0.0,94,-99.99,,,0.00,1-wire,2013-06-10 05:01:00,
2013-06-10 00:07:00,65.4,63.5,29.84,North,357,0.0,0.0,94,-99.99,,,0.00,1-wire,2013-06-10 05:07:00,
2013-06-10 00:12:00,65.1,63.2,29.83,North,357,0.0,0.0,93,-99.99,,,0.00,1-wire,2013-06-10 05:12:00,
2013-06-10 00:17:00,65.1,63.2,29.83,North,357,0.0,0.0,94,-99.99,,,0.00,1-wire,2013-06-10 05:17:00,
2013-06-10 00:22:00,65.2,63.3,29.82,NNE,25,0.0,0.0,94,-99.99,,,0.00,1-wire,2013-06-10 05:22:00,
2013-06-10 00:27:00,64.9,63.4,29.83,NNE,25,0.0,0.0,95,-99.99,,,0.00,1-wire,2013-06-10 05:27:00,
2013-06-10 00:32:00,64.9,63.3,29.83,NNE,25,0.0,0.0,95,-99.99,,,0.00,1-wire,2013-06-10 05:32:00,
2013-06-10 00:37:00,65.1,63.5,29.83,NNE,23,0.0,0.0,94,-99.99,,,0.00,1-wire,2013-06-10 05:37:00,
2013-06-10 00:42:00,65.1,63.4,29.83,NNE,23,0.0,0.0,94,-99.99,,,0.00,1-wire,2013-06-10 05:42:00,
2013-06-10 00:47:00,65.0,63.4,29.82,NNE,23,0.0,0.0,95,-99.99,,,0.00,1-wire,2013-06-10 05:47:00,
2013-06-10 00:53:00,65.0,63.5,29.82,NNE,28,0.0,0.0,95,-99.99,,,0.00,1-wire,2013-06-10 05:53:00,
2013-06-10 00:58:00,64.8,63.3,29.82,NNE,28,0.0,0.0,95,-99.99,,,0.00,1-wire,2013-06-10 05:58:00,
2013-06-10 01:03:00,65.0,63.6,29.82,NNE,28,0.0,0.0,95,-99.99,,,0.00,1-wire,2013-06-10 06:03:00,
2013-06-10 01:08:00,64.9,63.5,29.82,ENE,63,0.0,0.0,95,-99.99,,,0.00,1-wire,2013-06-10 06:08:00,
2013-06-10 01:13:00,64.8,63.3,29.82,ENE,63,0.0,0.0,95,-99.99,,,0.00,1-wire,2013-06-10 06:13:00,
2013-06-10 01:18:00,64.8,63.4,29.82,ENE,63,0.0,0.0,95,-99.99,,,0.00,1-wire,2013-06-10 06:18:00,
2013-06-10 01:24:00,64.7,63.2,29.82,ENE,63,0.0,0.0,95,-99.99,,,0.00,1-wire,2013-06-10 06:24:00,
2013-06-10 01:29:00,64.6,63.1,29.82,ENE,63,0.0,0.0,95,-99.99,,,0.00,1-wire,2013-06-10 06:29:00,
2013-06-10 01:34:00,64.6,63.2,29.82,ENE,63,0.0,0.0,95,-99.99,,,0.00,1-wire,2013-06-10 06:34:00,
2013-06-10 01:39:00,64.7,63.5,29.82,ENE,69,0.0,0.0,96,-99.99,,,0.00,1-wire,2013-06-10 06:39:00,
2013-06-10 01:44:00,64.8,63.6,29.82,ENE,69,0.0,0.0,96,-99.99,,,0.00,1-wire,2013-06-10 06:44:00,
2013-06-10 01:49:00,64.9,63.6,29.82,ENE,69,0.0,0.0,96,-99.99,,,0.00,1-wire,2013-06-10 06:49:00,
2013-06-10 01:55:00,64.9,63.5,29.81,ENE,68,0.0,0.0,95,-99.99,,,0.00,1-wire,2013-06-10 06:55:00,
2013-06-10 02:02:00,64.6,63.2,29.81,ENE,68,0.0,0.0,95,-99.99,,,0.00,1-wire,2013-06-10 07:02:00,
2013-06-10 02:07:00,65.0,63.5,29.82,ENE,68,0.0,0.0,95,-99.99,,,0.00,1-wire,2013-06-10 07:07:00,
2013-06-10 02:13:00,64.7,63.2,29.81,ENE,68,0.0,0.0,95,-99.99,,,0.00,1-wire,2013-06-10 07:13:00,
2013-06-10 02:19:00,64.7,63.2,29.81,ENE,68,0.0,0.0,95,-99.99,,,0.00,1-wire,2013-06-10 07:19:00,
2013-06-10 02:24:00,64.6,63.2,29.81,NNE,30,0.0,0.0,95,-99.99,,,0.00,1-wire,2013-06-10 07:24:00,
2013-06-10 02:29:00,64.7,63.3,29.80,NNE,30,0.0,0.0,95,-99.99,,,0.00,1-wire,2013-06-10 07:29:00,
2013-06-10 02:34:00,64.8,63.3,29.80,NNE,30,0.0,0.0,95,-99.99,,,0.00,1-wire,2013-06-10 07:34:00,
2013-06-10 02:39:00,64.6,63.1,29.80,NNE,29,0.0,0.0,95,-99.99,,,0.00,1-wire,2013-06-10 07:39:00,
2013-06-10 02:44:00,64.4,63.1,29.79,NNE,29,0.0,0.0,95,-99.99,,,0.00,1-wire,2013-06-10 07:44:00,
2013-06-10 02:50:00,64.5,63.1,29.79,NNE,29,0.0,0.0,95,-99.99,,,0.00,1-wire,2013-06-10 07:50:00,
2013-06-10 02:55:00,64.4,63.1,29.79,NNE,21,0.0,0.0,96,-99.99,,,0.00,1-wire,2013-06-10 07:55:00,
2013-06-10 03:00:00,64.2,63.1,29.79,NNE,21,0.0,0.0,97,-99.99,,,0.00,1-wire,2013-06-10 08:00:00,
2013-06-10 03:05:00,64.3,63.1,29.79,NNE,21,0.0,0.0,96,-99.99,,,0.00,1-wire,2013-06-10 08:05:00,
2013-06-10 03:10:00,64.1,62.6,29.79,NNE,30,0.0,0.0,95,-99.99,,,0.00,1-wire,2013-06-10 08:10:00,
2013-06-10 03:15:00,63.9,62.3,29.79,NNE,30,0.0,0.0,95,-99.99,,,0.00,1-wire,2013-06-10 08:15:00,
2013-06-10 03:20:00,63.8,62.3,29.79,NNE,30,0.0,0.0,95,-99.99,,,0.00,1-wire,2013-06-10 08:20:00,
2013-06-10 03:25:00,64.0,62.3,29.79,NNE,29,0.0,0.0,94,-99.99,,,0.00,1-wire,2013-06-10 08:25:00,
2013-06-10 03:30:00,63.8,62.0,29.79,NNE,29,0.0,0.0,94,-99.99,,,0.00,1-wire,2013-06-10 08:30:00,
2013-06-10 03:35:00,63.6,61.8,29.79,NNE,29,0.0,0.0,94,-99.99,,,0.00,1-wire,2013-06-10 08:35:00,
2013-06-10 03:40:00,63.3,61.7,29.79,NNE,30,0.0,0.0,94,-99.99,,,0.00,1-wire,2013-06-10 08:40:00,
2013-06-10 03:45:00,63.0,61.4,29.79,NNE,30,0.0,0.0,95,-99.99,,,0.00,1-wire,2013-06-10 08:45:00,
2013-06-10 03:50:00,62.9,61.2,29.79,NNE,30,0.0,0.0,94,-99.99,,,0.00,1-wire,2013-06-10 08:50:00,
2013-06-10 03:55:00,62.4,60.7,29.79,North,6,0.0,0.0,94,-99.99,,,0.00,1-wire,2013-06-10 08:55:00,
2013-06-10 04:00:00,62.1,60.7,29.79,North,6,0.0,0.0,95,-99.99,,,0.00,1-wire,2013-06-10 09:00:00,
2013-06-10 04:05:00,62.5,61.1,29.78,North,6,0.0,0.0,95,-99.99,,,0.00,1-wire,2013-06-10 09:05:00,
2013-06-10 04:10:00,62.4,60.9,29.79,NNE,16,0.0,0.0,95,-99.99,,,0.00,1-wire,2013-06-10 09:10:00,
2013-06-10 04:15:00,62.1,60.6,29.79,NNE,16,0.0,0.0,95,-99.99,,,0.00,1-wire,2013-06-10 09:15:00,
2013-06-10 04:20:00,61.6,60.0,29.79,NNE,16,0.0,0.0,94,-99.99,,,0.00,1-wire,2013-06-10 09:20:00,
2013-06-10 04:25:00,61.8,60.2,29.79,NNE,14,0.0,0.0,95,-99.99,,,0.00,1-wire,2013-06-10 09:25:00,
2013-06-10 04:30:00,61.9,60.4,29.79,NNE,14,0.0,0.0,95,-99.99,,,0.00,1-wire,2013-06-10 09:30:00,
2013-06-10 04:35:00,62.0,60.3,29.79,NNE,14,0.0,0.0,94,-99.99,,,0.00,1-wire,2013-06-10 09:35:00,
2013-06-10 04:40:00,61.7,60.0,29.79,NNE,19,0.0,0.0,94,-99.99,,,0.00,1-wire,2013-06-10 09:40:00,
2013-06-10 04:45:00,61.2,59.7,29.79,NNE,19,0.0,0.0,95,-99.99,,,0.00,1-wire,2013-06-10 09:45:00,
2013-06-10 04:50:00,61.0,59.7,29.78,NNE,19,0.0,0.0,95,-99.99,,,0.00,1-wire,2013-06-10 09:50:00,
2013-06-10 04:55:00,61.1,59.8,29.78,NNE,28,0.0,0.0,96,-99.99,,,0.00,1-wire,2013-06-10 09:55:00,
2013-06-10 05:00:00,61.1,59.8,29.78,NNE,28,0.0,0.0,95,-99.99,,,0.00,1-wire,2013-06-10 10:00:00,
2013-06-10 05:06:00,61.2,59.8,29.78,NE,40,0.0,0.0,95,-99.99,,,0.00,1-wire,2013-06-10 10:06:00,
2013-06-10 05:12:00,60.7,59.5,29.78,NE,40,0.0,0.0,96,-99.99,,,0.00,1-wire,2013-06-10 10:12:00,
2013-06-10 05:18:00,60.6,59.5,29.78,NE,40,0.0,0.0,96,-99.99,,,0.00,1-wire,2013-06-10 10:18:00,
2013-06-10 05:24:00,60.7,59.6,29.78,North,358,0.0,0.0,96,-99.99,,,0.00,1-wire,2013-06-10 10:24:00,
2013-06-10 05:29:00,61.1,60.0,29.78,North,358,0.0,0.0,96,-99.99,,,0.00,1-wire,2013-06-10 10:29:00,
2013-06-10 05:34:00,61.3,60.2,29.79,North,358,0.0,0.0,96,-99.99,,,0.00,1-wire,2013-06-10 10:34:00,
2013-06-10 05:39:00,60.7,59.4,29.79,NNE,13,0.0,0.0,96,-99.99,,,0.00,1-wire,2013-06-10 10:39:00,
2013-06-10 05:44:00,60.8,59.5,29.78,NNE,13,0.0,0.0,96,-99.99,,,0.00,1-wire,2013-06-10 10:44:00,
2013-06-10 05:50:00,61.2,59.9,29.79,NNE,13,0.0,0.0,96,-99.99,,,0.00,1-wire,2013-06-10 10:50:00,
2013-06-10 05:56:00,61.1,59.7,29.79,NNE,24,0.0,0.0,95,-99.99,,,0.00,1-wire,2013-06-10 10:56:00,
2013-06-10 06:02:00,61.0,59.6,29.79,NNE,24,0.0,0.0,95,-99.99,,,0.00,1-wire,2013-06-10 11:02:00,
2013-06-10 06:08:00,61.2,59.7,29.79,North,3,0.0,0.0,95,-99.99,,,0.00,1-wire,2013-06-10 11:08:00,
2013-06-10 06:14:00,61.0,59.6,29.79,North,3,0.0,0.0,95,-99.99,,,0.00,1-wire,2013-06-10 11:14:00,
2013-06-10 06:19:00,61.1,59.8,29.79,North,3,0.0,0.0,95,-99.99,,,0.00,1-wire,2013-06-10 11:19:00,
2013-06-10 06:24:00,61.4,59.9,29.79,NNE,29,0.0,0.0,95,-99.99,,,0.00,1-wire,2013-06-10 11:24:00,
2013-06-10 06:29:00,61.5,60.1,29.79,NNE,29,0.0,0.0,95,-99.99,,,0.00,1-wire,2013-06-10 11:29:00,
2013-06-10 06:34:00,61.5,60.2,29.79,NNE,29,0.0,0.0,96,-99.99,,,0.00,1-wire,2013-06-10 11:34:00,
2013-06-10 06:40:00,61.8,60.7,29.80,North,0,0.0,0.0,96,-99.99,,,0.00,1-wire,2013-06-10 11:40:00,
2013-06-10 06:47:00,62.2,61.0,29.80,North,0,0.0,0.0,96,-99.99,,,0.00,1-wire,2013-06-10 11:47:00,
2013-06-10 06:52:00,62.5,61.4,29.79,North,2,0.0,0.0,96,-99.99,,,0.00,1-wire,2013-06-10 11:52:00,
2013-06-10 06:58:00,62.7,61.7,29.79,North,2,0.0,0.0,96,-99.99,,,0.00,1-wire,2013-06-10 11:58:00,
2013-06-10 07:03:00,62.8,61.9,29.79,North,2,0.0,0.0,97,-99.99,,,0.00,1-wire,2013-06-10 12:03:00,
2013-06-10 07:08:00,63.3,62.4,29.79,North,4,0.0,3.0,97,-99.99,,,0.00,1-wire,2013-06-10 12:08:00,
2013-06-10 07:13:00,63.7,62.8,29.80,North,4,0.0,3.0,97,-99.99,,,0.00,1-wire,2013-06-10 12:13:00,
2013-06-10 07:18:00,63.8,62.9,29.80,North,4,0.0,0.0,97,-99.99,,,0.00,1-wire,2013-06-10 12:18:00,
2013-06-10 07:23:00,64.0,63.1,29.80,North,355,0.0,0.0,97,-99.99,,,0.00,1-wire,2013-06-10 12:23:00,
2013-06-10 07:28:00,64.1,63.0,29.80,North,355,0.0,0.0,96,-99.99,,,0.00,1-wire,2013-06-10 12:28:00,
2013-06-10 07:33:00,64.2,63.0,29.80,North,355,0.0,0.0,96,-99.99,,,0.00,1-wire,2013-06-10 12:33:00,
2013-06-10 07:38:00,63.8,62.6,29.80,North,1,0.0,0.0,96,-99.99,,,0.00,1-wire,2013-06-10 12:38:00,
2013-06-10 07:43:00,63.7,62.6,29.80,North,1,0.0,0.0,96,-99.99,,,0.00,1-wire,2013-06-10 12:43:00,
2013-06-10 07:55:00,64.5,63.4,29.81,North,353,0.0,0.0,96,-99.99,,,0.00,1-wire,2013-06-10 12:55:00,
2013-06-10 08:00:00,64.4,63.2,29.81,North,353,1.0,3.0,96,-99.99,,,0.00,1-wire,2013-06-10 13:00:00,
2013-06-10 08:05:00,64.5,63.1,29.81,North,353,0.0,0.0,95,-99.99,,,0.00,1-wire,2013-06-10 13:05:00,
2013-06-10 08:10:00,64.6,63.3,29.81,NW,321,0.0,0.0,95,-99.99,,,0.00,1-wire,2013-06-10 13:10:00,
2013-06-10 08:15:00,65.4,64.2,29.81,NW,321,0.0,3.0,96,-99.99,,,0.00,1-wire,2013-06-10 13:15:00,
2013-06-10 08:20:00,65.6,64.2,29.81,NW,321,1.0,3.0,95,-99.99,,,0.00,1-wire,2013-06-10 13:20:00,
2013-06-10 08:25:00,65.8,64.3,29.81,NNW,339,0.0,3.0,95,-99.99,,,0.00,1-wire,2013-06-10 13:25:00,
2013-06-10 08:30:00,66.2,64.6,29.81,NNW,339,0.0,3.0,94,-99.99,,,0.00,1-wire,2013-06-10 13:30:00,
2013-06-10 08:35:00,66.2,64.5,29.81,NNW,339,0.0,0.0,94,-99.99,,,0.00,1-wire,2013-06-10 13:35:00,
2013-06-10 08:40:00,66.5,64.7,29.82,NW,320,0.0,0.0,94,-99.99,,,0.00,1-wire,2013-06-10 13:40:00,
2013-06-10 08:45:00,67.0,65.1,29.82,NW,320,1.0,3.0,94,-99.99,,,0.00,1-wire,2013-06-10 13:45:00,
2013-06-10 08:50:00,67.4,64.7,29.82,NW,320,0.0,3.0,91,-99.99,,,0.00,1-wire,2013-06-10 13:50:00,
2013-06-10 08:55:00,67.8,65.3,29.82,NW,322,0.0,3.0,92,-99.99,,,0.00,1-wire,2013-06-10 13:55:00,
2013-06-10 09:00:00,67.8,64.1,29.82,NW,322,0.0,0.0,88,-99.99,,,0.00,1-wire,2013-06-10 14:00:00,
2013-06-10 09:05:00,68.1,64.1,29.82,NW,322,1.0,6.0,87,-99.99,,,0.00,1-wire,2013-06-10 14:05:00,
2013-06-10 09:10:00,68.2,62.3,29.82,NNW,340,0.0,0.0,82,-99.99,,,0.00,1-wire,2013-06-10 14:10:00,
2013-06-10 09:15:00,68.2,61.9,29.82,NNW,340,0.0,0.0,80,-99.99,,,0.00,1-wire,2013-06-10 14:15:00,
2013-06-10 09:20:00,69.0,62.8,29.81,NNW,340,0.0,3.0,81,-99.99,,,0.00,1-wire,2013-06-10 14:20:00,
2013-06-10 09:25:00,69.5,64.0,29.81,North,349,0.0,0.0,83,-99.99,,,0.00,1-wire,2013-06-10 14:25:00,
2013-06-10 09:30:00,70.0,63.5,29.81,North,349,0.0,0.0,80,-99.99,,,0.00,1-wire,2013-06-10 14:30:00,
2013-06-10 09:35:00,70.9,65.2,29.81,North,349,0.0,0.0,82,-99.99,,,0.00,1-wire,2013-06-10 14:35:00,
2013-06-10 09:40:00,70.9,63.3,29.81,North,349,3.0,6.0,77,-99.99,,,0.00,1-wire,2013-06-10 14:40:00,
2013-06-10 09:45:00,71.0,62.6,29.81,North,349,2.0,6.0,75,-99.99,,,0.00,1-wire,2013-06-10 14:45:00,
2013-06-10 09:51:00,71.5,62.7,29.81,NNW,340,1.0,6.0,74,-99.99,,,0.00,1-wire,2013-06-10 14:51:00,
2013-06-10 09:57:00,71.6,63.1,29.81,NNW,340,0.0,0.0,75,-99.99,,,0.00,1-wire,2013-06-10 14:57:00,
2013-06-10 10:02:00,71.7,62.7,29.81,NNW,340,1.0,3.0,73,-99.99,,,0.00,1-wire,2013-06-10 15:02:00,
2013-06-10 10:07:00,71.9,62.6,29.81,NNW,332,1.0,3.0,73,-99.99,,,0.00,1-wire,2013-06-10 15:07:00,
2013-06-10 10:12:00,71.9,61.9,29.81,NNW,332,2.0,6.0,71,-99.99,,,0.00,1-wire,2013-06-10 15:12:00,
2013-06-10 10:18:00,72.4,62.3,29.81,NNW,332,2.0,6.0,70,-99.99,,,0.00,1-wire,2013-06-10 15:18:00,
2013-06-10 10:24:00,73.0,62.8,29.81,North,0,2.0,6.0,71,-99.99,,,0.00,1-wire,2013-06-10 15:24:00,
2013-06-10 10:30:00,72.8,61.9,29.81,North,0,1.0,3.0,69,-99.99,,,0.00,1-wire,2013-06-10 15:30:00,
2013-06-10 10:36:00,73.4,62.7,29.81,North,0,1.0,3.0,69,-99.99,,,0.00,1-wire,2013-06-10 15:36:00,
2013-06-10 10:41:00,73.2,61.7,29.81,North,0,2.0,3.0,67,-99.99,,,0.00,1-wire,2013-06-10 15:41:00,
2013-06-10 10:46:00,73.6,63.4,29.81,North,0,0.0,3.0,71,-99.99,,,0.00,1-wire,2013-06-10 15:46:00,
2013-06-10 10:51:00,73.8,61.5,29.81,NNW,348,4.0,6.0,65,-99.99,,,0.00,1-wire,2013-06-10 15:51:00,
2013-06-10 10:57:00,74.5,62.3,29.82,NNW,348,2.0,6.0,66,-99.99,,,0.00,1-wire,2013-06-10 15:57:00,
2013-06-10 11:03:00,74.1,62.1,29.82,NNW,348,1.0,6.0,66,-99.99,,,0.00,1-wire,2013-06-10 16:03:00,
2013-06-10 11:08:00,74.8,61.9,29.82,North,349,0.0,3.0,64,-99.99,,,0.00,1-wire,2013-06-10 16:08:00,
2013-06-10 11:13:00,75.3,62.8,29.82,North,349,1.0,6.0,65,-99.99,,,0.00,1-wire,2013-06-10 16:13:00,
2013-06-10 11:18:00,74.8,62.0,29.82,North,349,3.0,6.0,64,-99.99,,,0.00,1-wire,2013-06-10 16:18:00,
2013-06-10 11:23:00,74.9,63.1,29.82,North,351,3.0,6.0,67,-99.99,,,0.00,1-wire,2013-06-10 16:23:00,
2013-06-10 11:28:00,75.4,63.3,29.82,North,351,3.0,8.0,66,-99.99,,,0.00,1-wire,2013-06-10 16:28:00,
2013-06-10 11:33:00,75.2,62.7,29.82,North,351,3.0,6.0,65,-99.99,,,0.00,1-wire,2013-06-10 16:33:00,
2013-06-10 11:38:00,76.1,64.7,29.82,North,357,2.0,6.0,68,-99.99,,,0.00,1-wire,2013-06-10 16:38:00,
2013-06-10 11:43:00,75.9,63.8,29.82,North,357,2.0,3.0,66,-99.99,,,0.00,1-wire,2013-06-10 16:43:00,
2013-06-10 11:48:00,75.3,63.0,29.82,North,357,1.0,3.0,66,-99.99,,,0.00,1-wire,2013-06-10 16:48:00,
2013-06-10 11:53:00,75.7,62.9,29.82,NNW,347,2.0,3.0,65,-99.99,,,0.00,1-wire,2013-06-10 16:53:00,
2013-06-10 11:58:00,74.6,62.1,29.82,NNW,347,2.0,6.0,65,-99.99,,,0.00,1-wire,2013-06-10 16:58:00,
2013-06-10 12:03:00,76.2,64.1,29.82,NNW,347,1.0,3.0,66,-99.99,,,0.00,1-wire,2013-06-10 17:03:00,
2013-06-10 12:08:00,76.4,62.9,29.82,North,355,1.0,3.0,63,-99.99,,,0.00,1-wire,2013-06-10 17:08:00,
2013-06-10 12:13:00,76.6,62.9,29.82,North,355,1.0,3.0,63,-99.99,,,0.00,1-wire,2013-06-10 17:13:00,
2013-06-10 12:18:00,76.6,62.5,29.82,North,355,2.0,6.0,62,-99.99,,,0.00,1-wire,2013-06-10 17:18:00,
2013-06-10 12:23:00,76.9,62.5,29.82,NNW,343,6.0,10.0,61,-99.99,,,0.00,1-wire,2013-06-10 17:23:00,
2013-06-10 12:28:00,77.7,62.7,29.82,NNW,343,4.0,6.0,60,-99.99,,,0.00,1-wire,2013-06-10 17:28:00,
2013-06-10 12:33:00,77.8,62.9,29.82,NNW,343,4.0,8.0,60,-99.99,,,0.00,1-wire,2013-06-10 17:33:00,
2013-06-10 12:38:00,78.0,63.3,29.82,NNW,339,0.0,3.0,61,-99.99,,,0.00,1-wire,2013-06-10 17:38:00,
2013-06-10 12:43:00,78.0,63.6,29.82,NNW,339,1.0,6.0,61,-99.99,,,0.00,1-wire,2013-06-10 17:43:00,
2013-06-10 12:48:00,78.0,63.3,29.82,NNW,339,1.0,3.0,61,-99.99,,,0.00,1-wire,2013-06-10 17:48:00,
2013-06-10 12:53:00,77.7,62.4,29.82,NNW,335,3.0,6.0,59,-99.99,,,0.00,1-wire,2013-06-10 17:53:00,
2013-06-10 12:58:00,78.2,62.8,29.82,NNW,335,4.0,11.0,59,-99.99,,,0.00,1-wire,2013-06-10 17:58:00,
2013-06-10 13:04:00,76.6,62.5,29.82,NNW,335,1.0,6.0,62,-99.99,,,0.00,1-wire,2013-06-10 18:04:00,
2013-06-10 13:09:00,75.7,62.1,29.82,NW,315,1.0,3.0,63,-99.99,,,0.00,1-wire,2013-06-10 18:09:00,
2013-06-10 13:14:00,75.6,62.6,29.82,NW,315,0.0,0.0,64,-99.99,,,0.00,1-wire,2013-06-10 18:14:00,
2013-06-10 13:19:00,75.4,62.7,29.82,NW,315,0.0,0.0,65,-99.99,,,0.00,1-wire,2013-06-10 18:19:00,
2013-06-10 13:25:00,75.3,62.7,29.82,NNW,330,2.0,6.0,65,-99.99,,,0.00,1-wire,2013-06-10 18:25:00,
2013-06-10 13:30:00,75.2,61.7,29.82,NNW,330,1.0,3.0,63,-99.99,,,0.00,1-wire,2013-06-10 18:30:00,
2013-06-10 13:35:00,76.0,62.5,29.82,NNW,330,0.0,3.0,63,-99.99,,,0.00,1-wire,2013-06-10 18:35:00,
2013-06-10 13:40:00,76.6,61.9,29.82,NNW,330,1.0,6.0,61,-99.99,,,0.00,1-wire,2013-06-10 18:40:00,
2013-06-10 13:46:00,78.0,62.0,29.82,NNW,330,3.0,9.0,58,-99.99,,,0.00,1-wire,2013-06-10 18:46:00,
2013-06-10 13:51:00,79.0,62.8,29.82,NNW,330,2.0,3.0,58,-99.99,,,0.00,1-wire,2013-06-10 18:51:00,
2013-06-10 13:56:00,79.2,64.0,29.82,NNW,330,1.0,3.0,60,-99.99,,,0.00,1-wire,2013-06-10 18:56:00,
2013-06-10 14:01:00,78.0,61.7,29.82,NNW,330,3.0,6.0,57,-99.99,,,0.00,1-wire,2013-06-10 19:01:00,
2013-06-10 14:06:00,77.3,62.0,29.82,NW,316,3.0,6.0,59,-99.99,,,0.00,1-wire,2013-06-10 19:06:00,
2013-06-10 14:12:00,78.4,63.0,29.81,NW,316,2.0,8.0,59,-99.99,,,0.00,1-wire,2013-06-10 19:12:00,
2013-06-10 14:17:00,76.7,62.5,29.81,NW,316,2.0,6.0,61,-99.99,,,0.00,1-wire,2013-06-10 19:17:00,
2013-06-10 14:22:00,76.9,62.6,29.81,NW,318,0.0,3.0,61,-99.99,,,0.00,1-wire,2013-06-10 19:22:00,
2013-06-10 14:27:00,78.2,62.7,29.81,NW,318,1.0,3.0,59,-99.99,,,0.00,1-wire,2013-06-10 19:27:00,
2013-06-10 14:32:00,77.6,61.7,29.80,NW,318,2.0,6.0,58,-99.99,,,0.00,1-wire,2013-06-10 19:32:00,
2013-06-10 14:37:00,77.1,61.7,29.81,NW,312,0.0,0.0,59,-99.99,,,0.00,1-wire,2013-06-10 19:37:00,
2013-06-10 14:42:00,77.0,60.0,29.80,NW,312,3.0,6.0,56,-99.99,,,0.00,1-wire,2013-06-10 19:42:00,
2013-06-10 14:47:00,77.9,60.7,29.80,NW,312,3.0,9.0,56,-99.99,,,0.00,1-wire,2013-06-10 19:47:00,
2013-06-10 14:53:00,78.4,60.1,29.80,NNW,332,0.0,3.0,54,-99.99,,,0.00,1-wire,2013-06-10 19:53:00,
2013-06-10 14:58:00,78.2,61.4,29.80,NNW,332,2.0,6.0,56,-99.99,,,0.00,1-wire,2013-06-10 19:58:00,
2013-06-10 15:03:00,79.0,62.7,29.80,NNW,332,0.0,3.0,58,-99.99,,,0.00,1-wire,2013-06-10 20:03:00,
2013-06-10 15:08:00,79.4,62.7,29.81,NW,317,2.0,8.0,57,-99.99,,,0.00,1-wire,2013-06-10 20:08:00,
2013-06-10 15:13:00,79.4,62.7,29.81,NW,317,3.0,8.0,57,-99.99,,,0.00,1-wire,2013-06-10 20:13:00,
2013-06-10 15:18:00,78.9,62.4,29.81,NW,317,3.0,6.0,57,-99.99,,,0.00,1-wire,2013-06-10 20:18:00,
2013-06-10 15:23:00,78.7,63.6,29.81,NW,319,1.0,3.0,60,-99.99,,,0.00,1-wire,2013-06-10 20:23:00,
2013-06-10 15:28:00,78.9,63.6,29.81,NW,319,4.0,8.0,60,-99.99,,,0.00,1-wire,2013-06-10 20:28:00,
2013-06-10 15:33:00,77.8,62.3,29.81,NW,319,2.0,6.0,59,-99.99,,,0.00,1-wire,2013-06-10 20:33:00,
2013-06-10 15:38:00,77.2,62.9,29.81,NW,321,2.0,6.0,62,-99.99,,,0.00,1-wire,2013-06-10 20:38:00,
2013-06-10 15:43:00,76.9,63.2,29.81,NW,321,1.0,3.0,63,-99.99,,,0.00,1-wire,2013-06-10 20:43:00,
2013-06-10 15:48:00,77.1,62.9,29.81,NW,321,1.0,3.0,62,-99.99,,,0.00,1-wire,2013-06-10 20:48:00,
2013-06-10 15:53:00,78.2,62.9,29.81,NW,317,1.0,3.0,60,-99.99,,,0.00,1-wire,2013-06-10 20:53:00,
2013-06-10 15:58:00,79.2,62.5,29.80,NW,317,2.0,3.0,57,-99.99,,,0.00,1-wire,2013-06-10 20:58:00,
2013-06-10 16:04:00,79.0,62.8,29.81,NW,317,3.0,6.0,58,-99.99,,,0.00,1-wire,2013-06-10 21:04:00,
2013-06-10 16:10:00,79.1,62.9,29.81,NW,320,1.0,6.0,58,-99.99,,,0.00,1-wire,2013-06-10 21:10:00,
2013-06-10 16:15:00,78.4,62.0,29.81,NW,320,0.0,0.0,57,-99.99,,,0.00,1-wire,2013-06-10 21:15:00,
2013-06-10 16:20:00,78.4,62.8,29.81,NW,320,1.0,3.0,59,-99.99,,,0.00,1-wire,2013-06-10 21:20:00,
2013-06-10 16:25:00,79.1,62.7,29.81,NW,324,1.0,6.0,57,-99.99,,,0.00,1-wire,2013-06-10 21:25:00,
2013-06-10 16:30:00,78.3,62.2,29.82,NW,324,0.0,0.0,58,-99.99,,,0.00,1-wire,2013-06-10 21:30:00,
2013-06-10 16:36:00,78.5,62.9,29.81,NW,317,0.0,0.0,59,-99.99,,,0.00,1-wire,2013-06-10 21:36:00,
2013-06-10 16:41:00,78.4,62.4,29.81,NW,317,1.0,3.0,58,-99.99,,,0.00,1-wire,2013-06-10 21:41:00,
2013-06-10 16:46:00,79.0,63.7,29.81,NW,317,0.0,3.0,60,-99.99,,,0.00,1-wire,2013-06-10 21:46:00,
2013-06-10 16:51:00,78.6,62.5,29.81,NW,320,1.0,6.0,58,-99.99,,,0.00,1-wire,2013-06-10 21:51:00,
2013-06-10 16:57:00,78.5,62.9,29.81,NW,320,0.0,3.0,59,-99.99,,,0.00,1-wire,2013-06-10 21:57:00,
2013-06-10 17:03:00,78.5,62.3,29.81,NW,320,2.0,3.0,58,-99.99,,,0.00,1-wire,2013-06-10 22:03:00,
2013-06-10 17:08:00,78.7,64.4,29.82,NNW,330,0.0,0.0,62,-99.99,,,0.00,1-wire,2013-06-10 22:08:00,
2013-06-10 17:13:00,79.0,64.0,29.81,NNW,330,0.0,0.0,60,-99.99,,,0.00,1-wire,2013-06-10 22:13:00,
2013-06-10 17:19:00,79.9,63.4,29.82,NNW,330,4.0,8.0,57,-99.99,,,0.00,1-wire,2013-06-10 22:19:00,
2013-06-10 17:25:00,80.4,63.1,29.82,NW,320,3.0,6.0,56,-99.99,,,0.00,1-wire,2013-06-10 22:25:00,
2013-06-10 17:30:00,80.6,62.8,29.82,NW,320,2.0,6.0,55,-99.99,,,0.00,1-wire,2013-06-10 22:30:00,
2013-06-10 17:35:00,80.7,62.3,29.82,NW,320,2.0,6.0,54,-99.99,,,0.00,1-wire,2013-06-10 22:35:00,
2013-06-10 17:40:00,80.7,61.7,29.82,NNW,334,2.0,6.0,52,-99.99,,,0.00,1-wire,2013-06-10 22:40:00,
2013-06-10 17:45:00,79.7,61.8,29.82,NNW,334,3.0,6.0,54,-99.99,,,0.00,1-wire,2013-06-10 22:45:00,
2013-06-10 17:50:00,78.7,62.2,29.82,NNW,334,0.0,3.0,57,-99.99,,,0.00,1-wire,2013-06-10 22:50:00,
2013-06-10 17:55:00,79.0,62.8,29.82,NNW,334,1.0,3.0,58,-99.99,,,0.00,1-wire,2013-06-10 22:55:00,
2013-06-10 18:00:00,79.6,61.9,29.82,NNW,334,2.0,6.0,55,-99.99,,,0.00,1-wire,2013-06-10 23:00:00,
2013-06-10 18:05:00,79.5,61.7,29.82,NNW,334,2.0,6.0,55,-99.99,,,0.00,1-wire,2013-06-10 23:05:00,
2013-06-10 18:10:00,79.1,62.0,29.82,NNW,329,1.0,3.0,56,-99.99,,,0.00,1-wire,2013-06-10 23:10:00,
2013-06-10 18:15:00,78.8,61.8,29.82,NNW,329,3.0,6.0,56,-99.99,,,0.00,1-wire,2013-06-10 23:15:00,
2013-06-10 18:20:00,78.4,61.9,29.82,NNW,329,1.0,3.0,57,-99.99,,,0.00,1-wire,2013-06-10 23:20:00,
2013-06-10 18:25:00,78.1,62.2,29.82,NW,321,3.0,6.0,58,-99.99,,,0.00,1-wire,2013-06-10 23:25:00,
2013-06-10 18:30:00,78.1,62.0,29.82,NW,321,2.0,8.0,58,-99.99,,,0.00,1-wire,2013-06-10 23:30:00,
2013-06-10 18:35:00,78.0,61.8,29.82,NW,321,2.0,6.0,58,-99.99,,,0.00,1-wire,2013-06-10 23:35:00,
2013-06-10 18:40:00,78.3,62.5,29.82,NW,315,1.0,3.0,58,-99.99,,,0.00,1-wire,2013-06-10 23:40:00,
2013-06-10 18:45:00,78.2,62.6,29.82,NW,315,0.0,3.0,59,-99.99,,,0.00,1-wire,2013-06-10 23:45:00,
2013-06-10 18:50:00,77.9,62.1,29.82,NW,315,1.0,6.0,58,-99.99,,,0.00,1-wire,2013-06-10 23:50:00,
2013-06-10 18:55:00,77.9,61.9,29.82,NW,320,3.0,6.0,58,-99.99,,,0.00,1-wire,2013-06-10 23:55:00,
2013-06-10 19:00:00,77.6,61.5,29.82,NW,320,4.0,9.0,58,-99.99,,,0.00,1-wire,2013-06-11 00:00:00,
2013-06-10 19:05:00,77.2,61.4,29.82,NW,320,4.0,8.0,58,-99.99,,,0.00,1-wire,2013-06-11 00:05:00,
2013-06-10 19:10:00,77.3,61.9,29.82,WNW,298,0.0,3.0,59,-99.99,,,0.00,1-wire,2013-06-11 00:10:00,
2013-06-10 19:15:00,77.2,62.1,29.82,WNW,298,0.0,3.0,60,-99.99,,,0.00,1-wire,2013-06-11 00:15:00,
2013-06-10 19:20:00,77.3,62.4,29.82,WNW,298,0.0,0.0,60,-99.99,,,0.00,1-wire,2013-06-11 00:20:00,
2013-06-10 19:25:00,76.7,61.7,29.83,WNW,299,2.0,6.0,60,-99.99,,,0.00,1-wire,2013-06-11 00:25:00,
2013-06-10 19:32:00,76.7,61.4,29.82,WNW,299,1.0,6.0,59,-99.99,,,0.00,1-wire,2013-06-11 00:32:00,
2013-06-10 19:38:00,76.9,62.1,29.83,WNW,300,1.0,6.0,61,-99.99,,,0.00,1-wire,2013-06-11 00:38:00,
2013-06-10 19:44:00,76.4,61.6,29.82,WNW,300,0.0,3.0,60,-99.99,,,0.00,1-wire,2013-06-11 00:44:00,
2013-06-10 19:50:00,76.1,61.2,29.83,WNW,300,0.0,3.0,60,-99.99,,,0.00,1-wire,2013-06-11 00:50:00,
2013-06-10 19:55:00,76.0,61.3,29.82,WNW,298,1.0,3.0,61,-99.99,,,0.00,1-wire,2013-06-11 00:55:00,
2013-06-10 20:00:00,76.1,61.9,29.83,WNW,298,1.0,3.0,61,-99.99,,,0.00,1-wire,2013-06-11 01:00:00,
2013-06-10 20:05:00,75.8,61.9,29.83,WNW,298,0.0,0.0,62,-99.99,,,0.00,1-wire,2013-06-11 01:05:00,
2013-06-10 20:10:00,75.1,61.8,29.83,WNW,292,0.0,3.0,63,-99.99,,,0.00,1-wire,2013-06-11 01:10:00,
2013-06-10 20:16:00,75.1,61.6,29.83,WNW,292,0.0,0.0,63,-99.99,,,0.00,1-wire,2013-06-11 01:16:00,
2013-06-10 20:21:00,74.9,62.3,29.83,WNW,286,0.0,0.0,65,-99.99,,,0.00,1-wire,2013-06-11 01:21:00,
2013-06-10 20:26:00,74.2,61.6,29.83,WNW,286,2.0,3.0,65,-99.99,,,0.00,1-wire,2013-06-11 01:26:00,
2013-06-10 20:31:00,73.7,61.6,29.83,WNW,286,0.0,0.0,66,-99.99,,,0.00,1-wire,2013-06-11 01:31:00,
2013-06-10 20:37:00,73.8,61.4,29.84,WNW,299,0.0,3.0,65,-99.99,,,0.00,1-wire,2013-06-11 01:37:00,
2013-06-10 20:43:00,73.5,61.5,29.84,WNW,299,0.0,3.0,66,-99.99,,,0.00,1-wire,2013-06-11 01:43:00,
2013-06-10 20:49:00,72.8,61.1,29.84,WNW,299,1.0,3.0,67,-99.99,,,0.00,1-wire,2013-06-11 01:49:00,
2013-06-10 20:55:00,72.8,61.5,29.83,WNW,292,1.0,3.0,68,-99.99,,,0.00,1-wire,2013-06-11 01:55:00,
2013-06-10 21:02:00,72.5,61.2,29.84,WNW,292,0.0,3.0,68,-99.99,,,0.00,1-wire,2013-06-11 02:02:00,
2013-06-10 21:08:00,72.5,61.7,29.85,WNW,295,0.0,0.0,69,-99.99,,,0.00,1-wire,2013-06-11 02:08:00,
2013-06-10 21:14:00,72.3,61.7,29.85,WNW,295,0.0,0.0,69,-99.99,,,0.00,1-wire,2013-06-11 02:14:00,
2013-06-10 21:19:00,72.0,61.8,29.85,WNW,295,0.0,3.0,70,-99.99,,,0.00,1-wire,2013-06-11 02:19:00,
2013-06-10 21:24:00,71.7,61.7,29.85,WNW,294,0.0,0.0,71,-99.99,,,0.00,1-wire,2013-06-11 02:24:00,
2013-06-10 21:29:00,71.3,61.4,29.85,WNW,294,0.0,0.0,71,-99.99,,,0.00,1-wire,2013-06-11 02:29:00,
2013-06-10 21:34:00,71.1,61.3,29.85,WNW,294,0.0,0.0,71,-99.99,,,0.00,1-wire,2013-06-11 02:34:00,
2013-06-10 21:39:00,70.7,61.3,29.86,WNW,289,0.0,0.0,72,-99.99,,,0.00,1-wire,2013-06-11 02:39:00,
2013-06-10 21:44:00,70.4,61.3,29.86,WNW,289,0.0,0.0,73,-99.99,,,0.00,1-wire,2013-06-11 02:44:00,
2013-06-10 21:49:00,70.1,61.2,29.86,WNW,289,0.0,0.0,74,-99.99,,,0.00,1-wire,2013-06-11 02:49:00,
2013-06-10 21:54:00,69.7,61.1,29.86,WNW,292,0.0,0.0,74,-99.99,,,0.00,1-wire,2013-06-11 02:54:00,
2013-06-10 21:59:00,69.7,61.3,29.86,WNW,292,0.0,0.0,75,-99.99,,,0.00,1-wire,2013-06-11 02:59:00,
2013-06-10 22:04:00,69.3,61.1,29.86,WNW,292,0.0,0.0,75,-99.99,,,0.00,1-wire,2013-06-11 03:04:00,
2013-06-10 22:09:00,69.2,61.0,29.86,NW,314,0.0,3.0,75,-99.99,,,0.00,1-wire,2013-06-11 03:09:00,
2013-06-10 22:14:00,69.2,61.3,29.86,NW,314,0.0,0.0,76,-99.99,,,0.00,1-wire,2013-06-11 03:14:00,
2013-06-10 22:19:00,68.8,60.9,29.86,NW,314,0.0,0.0,76,-99.99,,,0.00,1-wire,2013-06-11 03:19:00,
2013-06-10 22:24:00,68.4,60.6,29.86,NW,320,0.0,0.0,76,-99.99,,,0.00,1-wire,2013-06-11 03:24:00,
2013-06-10 22:29:00,68.4,60.5,29.86,NW,320,0.0,0.0,76,-99.99,,,0.00,1-wire,2013-06-11 03:29:00,
2013-06-10 22:34:00,68.6,60.8,29.86,NW,320,0.0,0.0,76,-99.99,,,0.00,1-wire,2013-06-11 03:34:00,
2013-06-10 22:39:00,68.5,60.8,29.86,NW,314,0.0,0.0,76,-99.99,,,0.00,1-wire,2013-06-11 03:39:00,
2013-06-10 22:44:00,68.1,60.5,29.86,NW,314,0.0,0.0,77,-99.99,,,0.00,1-wire,2013-06-11 03:44:00,
2013-06-10 22:49:00,68.2,60.7,29.87,NW,314,0.0,0.0,77,-99.99,,,0.00,1-wire,2013-06-11 03:49:00,
2013-06-10 22:54:00,68.1,60.5,29.87,NW,316,0.0,3.0,77,-99.99,,,0.00,1-wire,2013-06-11 03:54:00,
2013-06-10 22:59:00,68.2,60.7,29.87,NW,316,0.0,0.0,77,-99.99,,,0.00,1-wire,2013-06-11 03:59:00,
2013-06-10 23:01:00,68.1,60.6,29.87,NW,316,0.0,0.0,77,-99.99,,,0.00,1-wire,2013-06-11 04:01:00,
2013-06-10 23:02:00,68.1,60.7,29.87,NW,316,0.0,0.0,77,-99.99,,,0.00,1-wire,2013-06-11 04:02:00,
2013-06-10 23:05:00,67.8,60.3,29.87,NW,316,0.0,0.0,77,-99.99,,,0.00,1-wire,2013-06-11 04:05:00,
2013-06-10 23:06:00,67.8,60.2,29.87,NW,316,0.0,0.0,77,-99.99,,,0.00,1-wire,2013-06-11 04:06:00,
2013-06-10 23:07:00,67.8,60.3,29.87,NW,316,0.0,0.0,77,-99.99,,,0.00,1-wire,2013-06-11 04:07:00,
2013-06-10 23:12:00,67.8,60.5,29.87,NW,316,0.0,0.0,77,-99.99,,,0.00,1-wire,2013-06-11 04:12:00,
2013-06-10 23:17:00,67.6,60.4,29.87,NW,316,0.0,0.0,78,-99.99,,,0.00,1-wire,2013-06-11 04:17:00,
2013-06-10 23:22:00,67.3,60.3,29.87,NW,317,0.0,0.0,78,-99.99,,,0.00,1-wire,2013-06-11 04:22:00,
2013-06-10 23:27:00,67.2,60.3,29.88,NW,317,0.0,0.0,78,-99.99,,,0.00,1-wire,2013-06-11 04:27:00,
2013-06-10 23:32:00,67.1,60.3,29.88,NW,317,0.0,0.0,79,-99.99,,,0.00,1-wire,2013-06-11 04:32:00,
2013-06-10 23:37:00,67.0,60.4,29.88,NW,314,0.0,0.0,79,-99.99,,,0.00,1-wire,2013-06-11 04:37:00,
2013-06-10 23:43:00,66.8,60.2,29.88,NW,314,0.0,0.0,79,-99.99,,,0.00,1-wire,2013-06-11 04:43:00,
2013-06-10 23:49:00,66.7,60.2,29.88,NW,314,0.0,0.0,80,-99.99,,,0.00,1-wire,2013-06-11 04:49:00,
2013-06-10 23:55:00,66.4,60.2,29.88,NW,309,0.0,0.0,80,-99.99,,,0.00,1-wire,2013-06-11 04:55:00,